Time,TemperatureF,DewpointF,PressureIn,WindDirection,WindDirectionDegrees,WindSpeedMPH,WindSpeedGustMPH,Humidity,HourlyPrecipIn,Conditions,Clouds,dailyrainin,SoftwareType,DateUTC
2013-02-09 00:02:00,38.4,35.7,30.31,NNE,28,1.0,1.0,90,0.00,,,0.01,Wunderground v.1.15,2013-02-09 08:02:00,
2013-02-09 00:12:00,38.6,36.2,30.31,NNE,28,0.0,2.0,91,0.00,,,0.01,Wunderground v.1.15,2013-02-09 08:12:00,
2013-02-09 00:22:00,38.6,36.2,30.31,NNE,28,0.0,2.0,91,0.00,,,0.01,Wunderground v.1.15,2013-02-09 08:22:00,
2013-02-09 00:32:00,38.6,36.2,30.31,NNE,28,0.0,2.0,91,0.00,,,0.01,Wunderground v.1.15,2013-02-09 08:32:00,
2013-02-09 00:42:00,38.6,36.2,30.31,NNE,28,0.0,1.0,91,0.00,,,0.01,Wunderground v.1.15,2013-02-09 08:42:00,
2013-02-09 00:52:00,38.7,36.3,30.30,NNE,28,0.0,1.0,91,0.00,,,0.01,Wunderground v.1.15,2013-02-09 08:52:00,
2013-02-09 00:57:00,38.7,36.3,30.30,NNE,28,0.0,1.0,91,0.00,,,0.01,Wunderground v.1.15,2013-02-09 08:57:00,
2013-02-09 01:02:00,38.8,36.4,30.30,NNE,28,0.0,1.0,91,0.00,,,0.01,Wunderground v.1.15,2013-02-09 09:02:00,
2013-02-09 01:12:00,38.6,36.2,30.30,NNE,28,0.0,1.0,91,0.00,,,0.01,Wunderground v.1.15,2013-02-09 09:12:00,
2013-02-09 01:22:00,38.6,36.5,30.30,NNE,28,1.0,1.0,92,0.00,,,0.01,Wunderground v.1.15,2013-02-09 09:22:00,
2013-02-09 01:32:00,38.6,36.5,30.30,NNE,28,0.0,1.0,92,0.00,,,0.01,Wunderground v.1.15,2013-02-09 09:32:00,
2013-02-09 01:42:00,38.7,36.6,30.30,NNE,28,0.0,1.0,92,0.00,,,0.01,Wunderground v.1.15,2013-02-09 09:42:00,
2013-02-09 01:47:00,38.7,36.6,30.31,NNE,28,0.0,2.0,92,0.00,,,0.01,Wunderground v.1.15,2013-02-09 09:47:00,
2013-02-09 01:57:00,38.6,36.5,30.31,NNE,29,2.0,4.0,92,0.00,,,0.01,Wunderground v.1.15,2013-02-09 09:57:00,
2013-02-09 02:02:00,38.7,36.6,30.31,NNE,30,3.0,4.0,92,0.00,,,0.01,Wunderground v.1.15,2013-02-09 10:02:00,
2013-02-09 02:12:00,38.8,36.7,30.31,NE,35,2.0,4.0,92,0.00,,,0.01,Wunderground v.1.15,2013-02-09 10:12:00,
2013-02-09 02:22:00,38.8,36.7,30.31,NE,40,3.0,3.0,92,0.00,,,0.01,Wunderground v.1.15,2013-02-09 10:22:00,
2013-02-09 02:27:00,38.9,36.8,30.31,NE,40,2.0,3.0,92,0.00,,,0.01,Wunderground v.1.15,2013-02-09 10:27:00,
2013-02-09 02:37:00,39.0,36.9,30.31,NE,40,1.0,3.0,92,0.00,,,0.01,Wunderground v.1.15,2013-02-09 10:37:00,
2013-02-09 02:47:00,39.0,37.1,30.31,NE,40,0.0,1.0,93,0.00,,,0.01,Wunderground v.1.15,2013-02-09 10:47:00,
2013-02-09 02:52:00,39.0,36.9,30.31,NE,40,0.0,0.0,92,0.00,,,0.01,Wunderground v.1.15,2013-02-09 10:52:00,
2013-02-09 03:02:00,39.1,37.2,30.31,NE,40,0.0,1.0,93,0.00,,,0.01,Wunderground v.1.15,2013-02-09 11:02:00,
2013-02-09 03:12:00,39.2,37.3,30.31,NE,40,1.0,1.0,93,0.00,,,0.01,Wunderground v.1.15,2013-02-09 11:12:00,
2013-02-09 03:22:00,39.3,37.4,30.31,NE,40,0.0,1.0,93,0.00,,,0.01,Wunderground v.1.15,2013-02-09 11:22:00,
2013-02-09 03:32:00,39.3,37.4,30.31,NE,40,0.0,1.0,93,0.00,,,0.01,Wunderground v.1.15,2013-02-09 11:32:00,
2013-02-09 03:42:00,39.3,37.4,30.31,NE,40,0.0,2.0,93,0.00,,,0.01,Wunderground v.1.15,2013-02-09 11:42:00,
2013-02-09 03:52:00,39.3,37.4,30.31,NE,40,1.0,3.0,93,0.00,,,0.01,Wunderground v.1.15,2013-02-09 11:52:00,
2013-02-09 04:02:00,39.3,37.4,30.31,NE,42,2.0,2.0,93,0.00,,,0.01,Wunderground v.1.15,2013-02-09 12:02:00,
2013-02-09 04:12:00,39.3,37.4,30.31,NE,42,2.0,4.0,93,0.00,,,0.01,Wunderground v.1.15,2013-02-09 12:12:00,
2013-02-09 04:22:00,39.3,37.4,30.31,NE,43,3.0,3.0,93,0.00,,,0.01,Wunderground v.1.15,2013-02-09 12:22:00,
2013-02-09 04:32:00,39.3,37.4,30.31,NE,43,2.0,3.0,93,0.00,,,0.01,Wunderground v.1.15,2013-02-09 12:32:00,
2013-02-09 04:42:00,39.3,37.4,30.31,NE,44,2.0,4.0,93,0.00,,,0.01,Wunderground v.1.15,2013-02-09 12:42:00,
2013-02-09 04:52:00,39.3,37.4,30.31,NE,44,2.0,3.0,93,0.00,,,0.01,Wunderground v.1.15,2013-02-09 12:52:00,
2013-02-09 05:02:00,39.3,37.4,30.31,NE,44,2.0,3.0,93,0.00,,,0.01,Wunderground v.1.15,2013-02-09 13:02:00,
2013-02-09 05:12:00,39.3,37.4,30.31,NE,44,2.0,3.0,93,0.00,,,0.01,Wunderground v.1.15,2013-02-09 13:12:00,
2013-02-09 05:22:00,39.3,37.4,30.30,NE,44,2.0,3.0,93,0.00,,,0.01,Wunderground v.1.15,2013-02-09 13:22:00,
2013-02-09 05:32:00,39.2,37.3,30.31,NE,44,2.0,4.0,93,0.00,,,0.01,Wunderground v.1.15,2013-02-09 13:32:00,
2013-02-09 05:42:00,39.3,37.4,30.31,NE,44,2.0,3.0,93,0.00,,,0.01,Wunderground v.1.15,2013-02-09 13:42:00,
2013-02-09 05:52:00,39.3,37.4,30.30,NE,44,3.0,3.0,93,0.00,,,0.01,Wunderground v.1.15,2013-02-09 13:52:00,
2013-02-09 05:57:00,39.3,37.4,30.30,NE,44,2.0,3.0,93,0.00,,,0.01,Wunderground v.1.15,2013-02-09 13:57:00,
2013-02-09 06:07:00,39.3,37.4,30.30,NE,55,3.0,4.0,93,0.00,,,0.01,Wunderground v.1.15,2013-02-09 14:07:00,
2013-02-09 06:17:00,39.3,37.4,30.30,NE,56,3.0,4.0,93,0.00,,,0.01,Wunderground v.1.15,2013-02-09 14:17:00,
2013-02-09 06:27:00,39.3,37.4,30.30,NE,56,2.0,4.0,93,0.00,,,0.01,Wunderground v.1.15,2013-02-09 14:27:00,
2013-02-09 06:32:00,39.4,37.5,30.30,NE,56,3.0,4.0,93,0.00,,,0.01,Wunderground v.1.15,2013-02-09 14:32:00,
2013-02-09 06:42:00,39.3,37.4,30.30,NE,56,3.0,4.0,93,0.00,,,0.01,Wunderground v.1.15,2013-02-09 14:42:00,
2013-02-09 06:52:00,39.3,37.4,30.30,ENE,59,3.0,3.0,93,0.00,,,0.01,Wunderground v.1.15,2013-02-09 14:52:00,
2013-02-09 07:02:00,39.3,37.4,30.30,ENE,60,3.0,4.0,93,0.00,,,0.01,Wunderground v.1.15,2013-02-09 15:02:00,
2013-02-09 07:07:00,39.3,37.4,30.30,ENE,60,3.0,4.0,93,0.00,,,0.01,Wunderground v.1.15,2013-02-09 15:07:00,
2013-02-09 07:17:00,39.4,37.5,30.30,ENE,60,3.0,4.0,93,0.00,,,0.01,Wunderground v.1.15,2013-02-09 15:17:00,
2013-02-09 07:27:00,39.5,37.6,30.30,ENE,71,3.0,5.0,93,0.00,,,0.01,Wunderground v.1.15,2013-02-09 15:27:00,
2013-02-09 07:32:00,39.5,37.6,30.30,ENE,71,3.0,3.0,93,0.00,,,0.01,Wunderground v.1.15,2013-02-09 15:32:00,
2013-02-09 07:42:00,39.7,37.8,30.31,ENE,71,3.0,3.0,93,0.00,,,0.00,Wunderground v.1.15,2013-02-09 15:42:00,
2013-02-09 07:52:00,39.8,37.9,30.31,ENE,71,2.0,4.0,93,0.00,,,0.00,Wunderground v.1.15,2013-02-09 15:52:00,
2013-02-09 08:02:00,39.9,38.0,30.32,ENE,71,3.0,4.0,93,0.00,,,0.00,Wunderground v.1.15,2013-02-09 16:02:00,
2013-02-09 08:12:00,40.0,37.9,30.32,ENE,71,3.0,4.0,92,0.00,,,0.00,Wunderground v.1.15,2013-02-09 16:12:00,
2013-02-09 08:22:00,40.1,38.0,30.32,ENE,72,3.0,3.0,92,0.00,,,0.00,Wunderground v.1.15,2013-02-09 16:22:00,
2013-02-09 08:32:00,40.1,38.0,30.32,ENE,71,2.0,4.0,92,0.00,,,0.00,Wunderground v.1.15,2013-02-09 16:32:00,
2013-02-09 08:42:00,40.3,38.2,30.32,ENE,72,2.0,2.0,92,0.00,,,0.00,Wunderground v.1.15,2013-02-09 16:42:00,
2013-02-09 08:47:00,40.4,38.5,30.32,ENE,72,2.0,3.0,93,0.00,,,0.00,Wunderground v.1.15,2013-02-09 16:47:00,
2013-02-09 08:52:00,40.5,38.6,30.32,ENE,73,3.0,5.0,93,0.00,,,0.00,Wunderground v.1.15,2013-02-09 16:52:00,
2013-02-09 08:57:00,40.6,38.7,30.32,ENE,73,3.0,5.0,93,0.00,,,0.00,Wunderground v.1.15,2013-02-09 16:57:00,
2013-02-09 09:07:00,40.7,38.8,30.32,ENE,73,3.0,4.0,93,0.00,,,0.00,Wunderground v.1.15,2013-02-09 17:07:00,
2013-02-09 09:12:00,40.8,38.9,30.33,ENE,73,2.0,4.0,93,0.00,,,0.00,Wunderground v.1.15,2013-02-09 17:12:00,
2013-02-09 09:22:00,41.1,39.5,30.32,ENE,73,2.0,3.0,94,0.00,,,0.00,Wunderground v.1.15,2013-02-09 17:22:00,
2013-02-09 09:32:00,41.4,39.8,30.32,ENE,73,2.0,4.0,94,0.00,,,0.00,Wunderground v.1.15,2013-02-09 17:32:00,
2013-02-09 09:42:00,41.6,40.0,30.32,ENE,73,2.0,4.0,94,0.00,,,0.00,Wunderground v.1.15,2013-02-09 17:42:00,
2013-02-09 09:52:00,41.7,40.1,30.33,ENE,74,2.0,4.0,94,0.00,,,0.00,Wunderground v.1.15,2013-02-09 17:52:00,
2013-02-09 09:57:00,41.7,40.1,30.32,ENE,75,2.0,5.0,94,0.00,,,0.00,Wunderground v.1.15,2013-02-09 17:57:00,
2013-02-09 10:07:00,41.8,40.2,30.33,ENE,75,1.0,2.0,94,0.00,,,0.00,Wunderground v.1.15,2013-02-09 18:07:00,
2013-02-09 10:12:00,42.0,40.4,30.33,ENE,75,1.0,3.0,94,0.00,,,0.00,Wunderground v.1.15,2013-02-09 18:12:00,
2013-02-09 10:22:00,42.2,40.6,30.32,ENE,75,2.0,2.0,94,0.00,,,0.00,Wunderground v.1.15,2013-02-09 18:22:00,
2013-02-09 10:32:00,42.5,40.9,30.33,ENE,75,1.0,3.0,94,0.00,,,0.00,Wunderground v.1.15,2013-02-09 18:32:00,
2013-02-09 10:37:00,42.6,41.0,30.32,ENE,78,2.0,3.0,94,0.00,,,0.00,Wunderground v.1.15,2013-02-09 18:37:00,
2013-02-09 10:47:00,42.9,41.3,30.33,East,79,1.0,4.0,94,0.00,,,0.00,Wunderground v.1.15,2013-02-09 18:47:00,
2013-02-09 10:57:00,43.0,41.4,30.33,East,80,1.0,5.0,94,0.00,,,0.00,Wunderground v.1.15,2013-02-09 18:57:00,
2013-02-09 11:02:00,43.1,41.5,30.33,East,80,1.0,3.0,94,0.00,,,0.00,Wunderground v.1.15,2013-02-09 19:02:00,
2013-02-09 11:12:00,43.3,41.7,30.33,East,80,2.0,3.0,94,0.00,,,0.00,Wunderground v.1.15,2013-02-09 19:12:00,
2013-02-09 11:17:00,43.3,41.7,30.33,East,80,2.0,4.0,94,0.00,,,0.00,Wunderground v.1.15,2013-02-09 19:17:00,
2013-02-09 11:27:00,43.3,41.7,30.33,East,81,2.0,5.0,94,0.00,,,0.00,Wunderground v.1.15,2013-02-09 19:27:00,
2013-02-09 11:32:00,43.4,41.8,30.33,East,82,2.0,5.0,94,0.00,,,0.00,Wunderground v.1.15,2013-02-09 19:32:00,
2013-02-09 11:42:00,43.4,41.8,30.33,East,86,2.0,2.0,94,0.00,,,0.00,Wunderground v.1.15,2013-02-09 19:42:00,
2013-02-09 11:47:00,43.5,41.9,30.33,East,86,2.0,6.0,94,0.00,,,0.00,Wunderground v.1.15,2013-02-09 19:47:00,
2013-02-09 11:52:00,43.5,41.9,30.32,East,88,2.0,5.0,94,0.00,,,0.00,Wunderground v.1.15,2013-02-09 19:52:00,
2013-02-09 12:02:00,43.8,42.2,30.32,East,93,1.0,4.0,94,0.00,,,0.00,Wunderground v.1.15,2013-02-09 20:02:00,
2013-02-09 12:07:00,44.1,42.5,30.32,ESE,109,2.0,5.0,94,0.00,,,0.00,Wunderground v.1.15,2013-02-09 20:07:00,
2013-02-09 12:17:00,44.0,42.4,30.32,South,190,4.0,7.0,94,0.00,,,0.00,Wunderground v.1.15,2013-02-09 20:17:00,
2013-02-09 12:27:00,43.9,42.3,30.31,SW,216,4.0,6.0,94,0.00,,,0.00,Wunderground v.1.15,2013-02-09 20:27:00,
2013-02-09 12:32:00,44.0,42.7,30.31,SW,216,3.0,6.0,95,0.00,,,0.00,Wunderground v.1.15,2013-02-09 20:32:00,
2013-02-09 12:37:00,44.0,42.4,30.31,SW,217,3.0,6.0,94,0.00,,,0.00,Wunderground v.1.15,2013-02-09 20:37:00,
2013-02-09 12:42:00,44.0,42.7,30.31,SW,223,3.0,6.0,95,0.00,,,0.00,Wunderground v.1.15,2013-02-09 20:42:00,
2013-02-09 12:52:00,44.0,42.7,30.31,SW,225,4.0,4.0,95,0.00,,,0.00,Wunderground v.1.15,2013-02-09 20:52:00,
2013-02-09 13:02:00,43.9,42.3,30.31,SW,227,3.0,6.0,94,0.00,,,0.00,Wunderground v.1.15,2013-02-09 21:02:00,
2013-02-09 13:12:00,44.2,42.9,30.30,SW,227,4.0,7.0,95,0.00,,,0.00,Wunderground v.1.15,2013-02-09 21:12:00,
2013-02-09 13:22:00,44.2,42.6,30.31,SW,229,4.0,8.0,94,0.00,,,0.00,Wunderground v.1.15,2013-02-09 21:22:00,
2013-02-09 13:27:00,44.2,42.6,30.31,SW,233,5.0,8.0,94,0.00,,,0.00,Wunderground v.1.15,2013-02-09 21:27:00,
2013-02-09 13:32:00,44.3,42.7,30.30,SW,233,5.0,7.0,94,0.00,,,0.00,Wunderground v.1.15,2013-02-09 21:32:00,
2013-02-09 13:42:00,44.4,43.1,30.31,SW,236,4.0,4.0,95,0.00,,,0.00,Wunderground v.1.15,2013-02-09 21:42:00,
2013-02-09 13:52:00,44.7,43.1,30.30,SW,236,3.0,3.0,94,0.00,,,0.00,Wunderground v.1.15,2013-02-09 21:52:00,
2013-02-09 14:02:00,44.8,43.2,30.30,SW,235,3.0,5.0,94,0.00,,,0.00,Wunderground v.1.15,2013-02-09 22:02:00,
2013-02-09 14:12:00,44.8,43.2,30.30,SW,235,3.0,3.0,94,0.00,,,0.00,Wunderground v.1.15,2013-02-09 22:12:00,
2013-02-09 14:22:00,44.7,43.1,30.30,SW,234,3.0,3.0,94,0.00,,,0.00,Wunderground v.1.15,2013-02-09 22:22:00,
2013-02-09 14:27:00,44.8,43.5,30.30,SW,234,3.0,4.0,95,0.00,,,0.00,Wunderground v.1.15,2013-02-09 22:27:00,
2013-02-09 14:32:00,44.8,43.5,30.30,SW,234,3.0,6.0,95,0.00,,,0.00,Wunderground v.1.15,2013-02-09 22:32:00,
2013-02-09 14:42:00,44.9,43.6,30.30,SW,234,3.0,6.0,95,0.00,,,0.00,Wunderground v.1.15,2013-02-09 22:42:00,
2013-02-09 14:52:00,44.9,43.6,30.30,SW,234,3.0,5.0,95,0.00,,,0.00,Wunderground v.1.15,2013-02-09 22:52:00,
2013-02-09 15:02:00,45.0,43.7,30.30,SW,234,3.0,5.0,95,0.00,,,0.00,Wunderground v.1.15,2013-02-09 23:02:00,
2013-02-09 15:12:00,45.0,43.7,30.30,SW,234,3.0,3.0,95,0.00,,,0.00,Wunderground v.1.15,2013-02-09 23:12:00,
2013-02-09 15:17:00,44.9,43.6,30.30,SW,234,3.0,5.0,95,0.00,,,0.00,Wunderground v.1.15,2013-02-09 23:17:00,
2013-02-09 15:27:00,44.8,43.5,30.30,SW,234,3.0,5.0,95,0.00,,,0.00,Wunderground v.1.15,2013-02-09 23:27:00,
2013-02-09 15:37:00,44.9,43.8,30.30,SW,234,4.0,7.0,96,0.00,,,0.00,Wunderground v.1.15,2013-02-09 23:37:00,
2013-02-09 15:42:00,44.9,43.8,30.30,SW,234,3.0,5.0,96,0.00,,,0.00,Wunderground v.1.15,2013-02-09 23:42:00,
2013-02-09 15:52:00,44.8,43.7,30.31,SW,234,4.0,4.0,96,0.00,,,0.00,Wunderground v.1.15,2013-02-09 23:52:00,
2013-02-09 16:02:00,44.9,43.8,30.31,SW,234,2.0,5.0,96,0.00,,,0.00,Wunderground v.1.15,2013-02-10 00:02:00,
2013-02-09 16:12:00,44.8,43.7,30.31,SW,234,3.0,3.0,96,0.00,,,0.00,Wunderground v.1.15,2013-02-10 00:12:00,
2013-02-09 16:17:00,44.8,43.7,30.31,SW,234,3.0,5.0,96,0.00,,,0.00,Wunderground v.1.15,2013-02-10 00:17:00,
2013-02-09 16:22:00,44.8,43.7,30.31,SW,234,3.0,5.0,96,0.00,,,0.00,Wunderground v.1.15,2013-02-10 00:22:00,
2013-02-09 16:32:00,44.9,43.8,30.31,SW,234,2.0,2.0,96,0.00,,,0.00,Wunderground v.1.15,2013-02-10 00:32:00,
2013-02-09 16:37:00,45.0,43.9,30.31,SW,234,2.0,4.0,96,0.00,,,0.00,Wunderground v.1.15,2013-02-10 00:37:00,
2013-02-09 16:47:00,45.1,44.0,30.31,SW,234,2.0,4.0,96,0.00,,,0.00,Wunderground v.1.15,2013-02-10 00:47:00,
2013-02-09 16:52:00,45.0,43.9,30.30,SW,234,2.0,4.0,96,0.00,,,0.00,Wunderground v.1.15,2013-02-10 00:52:00,
2013-02-09 17:02:00,45.0,43.9,30.30,SW,234,3.0,3.0,96,0.00,,,0.00,Wunderground v.1.15,2013-02-10 01:02:00,
2013-02-09 17:12:00,45.0,43.9,30.31,SW,234,2.0,2.0,96,0.00,,,0.00,Wunderground v.1.15,2013-02-10 01:12:00,
2013-02-09 17:17:00,44.9,43.8,30.31,SW,234,1.0,3.0,96,0.00,,,0.00,Wunderground v.1.15,2013-02-10 01:17:00,
2013-02-09 17:27:00,45.0,43.9,30.31,SW,234,0.0,2.0,96,0.00,,,0.00,Wunderground v.1.15,2013-02-10 01:27:00,
2013-02-09 17:37:00,45.0,43.9,30.31,SW,234,1.0,2.0,96,0.00,,,0.00,Wunderground v.1.15,2013-02-10 01:37:00,
2013-02-09 17:42:00,45.0,43.9,30.31,SW,234,1.0,1.0,96,0.00,,,0.01,Wunderground v.1.15,2013-02-10 01:42:00,
2013-02-09 17:52:00,45.0,43.9,30.31,SW,234,0.0,0.0,96,0.00,,,0.01,Wunderground v.1.15,2013-02-10 01:52:00,
2013-02-09 18:02:00,45.0,43.9,30.31,SW,234,0.0,1.0,96,0.00,,,0.01,Wunderground v.1.15,2013-02-10 02:02:00,
2013-02-09 18:12:00,45.1,44.0,30.31,SW,234,0.0,0.0,96,0.00,,,0.02,Wunderground v.1.15,2013-02-10 02:12:00,
2013-02-09 18:22:00,45.1,44.0,30.31,SW,234,0.0,2.0,96,0.00,,,0.02,Wunderground v.1.15,2013-02-10 02:22:00,
2013-02-09 18:32:00,45.3,44.2,30.31,SW,234,0.0,2.0,96,0.00,,,0.02,Wunderground v.1.15,2013-02-10 02:32:00,
2013-02-09 18:42:00,45.3,44.2,30.31,SW,234,0.0,2.0,96,0.00,,,0.02,Wunderground v.1.15,2013-02-10 02:42:00,
2013-02-09 18:47:00,45.3,44.2,30.30,SW,234,1.0,2.0,96,0.00,,,0.02,Wunderground v.1.15,2013-02-10 02:47:00,
2013-02-09 18:52:00,45.4,44.3,30.30,SW,234,1.0,1.0,96,0.00,,,0.02,Wunderground v.1.15,2013-02-10 02:52:00,
2013-02-09 19:02:00,45.4,44.3,30.30,SW,234,0.0,0.0,96,0.00,,,0.02,Wunderground v.1.15,2013-02-10 03:02:00,
2013-02-09 19:07:00,45.5,44.4,30.30,SW,234,0.0,1.0,96,0.00,,,0.02,Wunderground v.1.15,2013-02-10 03:07:00,
2013-02-09 19:17:00,45.5,44.4,30.30,SW,234,0.0,0.0,96,0.00,,,0.02,Wunderground v.1.15,2013-02-10 03:17:00,
2013-02-09 19:27:00,45.6,44.5,30.30,SW,234,0.0,0.0,96,0.00,,,0.02,Wunderground v.1.15,2013-02-10 03:27:00,
2013-02-09 19:32:00,45.5,44.4,30.30,SW,234,0.0,0.0,96,0.00,,,0.02,Wunderground v.1.15,2013-02-10 03:32:00,
2013-02-09 19:42:00,45.5,44.4,30.30,SW,234,1.0,2.0,96,0.00,,,0.02,Wunderground v.1.15,2013-02-10 03:42:00,
2013-02-09 19:52:00,45.7,44.6,30.30,SW,234,2.0,2.0,96,0.00,,,0.02,Wunderground v.1.15,2013-02-10 03:52:00,
2013-02-09 20:02:00,45.7,44.6,30.30,SW,234,1.0,1.0,96,0.00,,,0.02,Wunderground v.1.15,2013-02-10 04:02:00,
2013-02-09 20:12:00,45.6,44.5,30.31,SW,234,0.0,0.0,96,0.00,,,0.02,Wunderground v.1.15,2013-02-10 04:12:00,
2013-02-09 20:22:00,45.5,44.4,30.30,SW,234,0.0,1.0,96,0.00,,,0.02,Wunderground v.1.15,2013-02-10 04:22:00,
2013-02-09 20:32:00,45.6,44.5,30.30,SW,234,1.0,1.0,96,0.00,,,0.02,Wunderground v.1.15,2013-02-10 04:32:00,
2013-02-09 20:37:00,45.6,44.5,30.30,SW,234,0.0,2.0,96,0.00,,,0.02,Wunderground v.1.15,2013-02-10 04:37:00,
2013-02-09 20:47:00,45.8,45.0,30.30,SW,234,1.0,4.0,97,0.00,,,0.02,Wunderground v.1.15,2013-02-10 04:47:00,
2013-02-09 20:52:00,45.7,44.6,30.31,SW,234,0.0,2.0,96,0.00,,,0.02,Wunderground v.1.15,2013-02-10 04:52:00,
2013-02-09 21:02:00,45.6,44.5,30.30,SW,234,0.0,0.0,96,0.00,,,0.02,Wunderground v.1.15,2013-02-10 05:02:00,
2013-02-09 21:12:00,45.6,44.8,30.31,WSW,248,1.0,1.0,97,0.00,,,0.02,Wunderground v.1.15,2013-02-10 05:12:00,
2013-02-09 21:17:00,45.6,44.5,30.31,WSW,248,0.0,2.0,96,0.00,,,0.02,Wunderground v.1.15,2013-02-10 05:17:00,
2013-02-09 21:22:00,45.6,44.5,30.31,WSW,254,0.0,3.0,96,0.00,,,0.02,Wunderground v.1.15,2013-02-10 05:22:00,
2013-02-09 21:32:00,45.6,44.5,30.31,West,271,1.0,4.0,96,0.00,,,0.02,Wunderground v.1.15,2013-02-10 05:32:00,
2013-02-09 21:42:00,45.6,44.5,30.31,NW,310,2.0,2.0,96,0.00,,,0.02,Wunderground v.1.15,2013-02-10 05:42:00,
2013-02-09 21:47:00,45.6,44.5,30.31,NNW,328,2.0,4.0,96,0.00,,,0.02,Wunderground v.1.15,2013-02-10 05:47:00,
2013-02-09 21:57:00,45.4,44.3,30.31,NNW,336,2.0,3.0,96,0.00,,,0.02,Wunderground v.1.15,2013-02-10 05:57:00,
2013-02-09 22:07:00,45.2,44.1,30.31,NNW,340,2.0,5.0,96,0.00,,,0.02,Wunderground v.1.15,2013-02-10 06:07:00,
2013-02-09 22:17:00,45.3,44.2,30.31,NNW,340,1.0,4.0,96,0.00,,,0.02,Wunderground v.1.15,2013-02-10 06:17:00,
2013-02-09 22:22:00,45.4,44.6,30.31,NNW,340,1.0,1.0,97,0.00,,,0.02,Wunderground v.1.15,2013-02-10 06:22:00,
2013-02-09 22:32:00,45.6,44.5,30.31,NNW,346,1.0,1.0,96,0.00,,,0.02,Wunderground v.1.15,2013-02-10 06:32:00,
2013-02-09 22:42:00,45.5,44.4,30.31,North,5,2.0,7.0,96,0.00,,,0.02,Wunderground v.1.15,2013-02-10 06:42:00,
2013-02-09 22:52:00,45.4,44.3,30.32,North,360,3.0,6.0,96,0.00,,,0.03,Wunderground v.1.15,2013-02-10 06:52:00,
2013-02-09 22:57:00,45.2,44.1,30.31,North,360,4.0,10.0,96,0.00,,,0.03,Wunderground v.1.15,2013-02-10 06:57:00,
2013-02-09 23:07:00,45.2,44.1,30.32,NNE,12,4.0,10.0,96,0.00,,,0.03,Wunderground v.1.15,2013-02-10 07:07:00,
2013-02-09 23:17:00,45.0,43.9,30.32,NNE,32,3.0,7.0,96,0.00,,,0.03,Wunderground v.1.15,2013-02-10 07:17:00,
2013-02-09 23:22:00,45.0,43.9,30.32,NNE,31,2.0,6.0,96,0.00,,,0.03,Wunderground v.1.15,2013-02-10 07:22:00,
2013-02-09 23:27:00,45.0,43.9,30.32,NNE,31,2.0,6.0,96,0.00,,,0.03,Wunderground v.1.15,2013-02-10 07:27:00,
2013-02-09 23:37:00,45.0,43.9,30.32,NNE,31,1.0,3.0,96,0.00,,,0.03,Wunderground v.1.15,2013-02-10 07:37:00,
2013-02-09 23:47:00,44.9,43.8,30.32,NNE,31,1.0,5.0,96,0.00,,,0.03,Wunderground v.1.15,2013-02-10 07:47:00,
2013-02-09 23:57:00,44.9,43.8,30.32,NNE,31,2.0,3.0,96,0.00,,,0.03,Wunderground v.1.15,2013-02-10 07:57:00,